NOVA 3 [?]

Last updated on Mon Jun 26 2023 00:03:33 GMT+0000 (Coordinated Universal Time)

1 15362U 84110A 23176.48008622 .00000092 00000+0 20072-3 0 9994 2 15362 90.1100 70.6309 0030308 296.1525 237.9041 13.22881448868097
UTC large
Height (km)
Speed (km/s)
/
Latitude / Longitude
Inclination (degrees)
Orbital Period (minutes)
Azimuth
Elevation
Range (km)
Doppler Factor

Next 0 passes for location: London (51.5072 / 0.1276)

Sorry there are no passes over London.